When you browse on this site, cookies collect data to enhance your experience and personalize the content and advertising you see.
Visit our Privacy Policy to learn more. By continuing to use the site, you agree to this use of cookies and data.

Hourly Weather Sada

Today, 16 July, Thursday

Time Temperature Precipitation Wind Pressure Humidity
00:00 +22°C° 0 mm 1 mps 569 mmHg 51%
01:00 +22°C° 0 mm 1 mps 569 mmHg 48%
02:00 +22°C° 0 mm 1 mps 569 mmHg 46%
03:00 +22°C° 0 mm 1 mps 568 mmHg 43%
04:00 +22°C° 0 mm 1 mps 568 mmHg 45%
05:00 +21°C° 0 mm 1 mps 568 mmHg 46%
06:00 +21°C° 0 mm 1 mps 568 mmHg 47%
07:00 +22°C° 0 mm 1 mps 569 mmHg 44%
08:00 +22°C° 0 mm 1 mps 570 mmHg 41%
09:00 +23°C° 0 mm 2 mps 570 mmHg 37%
10:00 +24°C° 0 mm 2 mps 570 mmHg 37%
11:00 +25°C° 0 mm 3 mps 570 mmHg 36%
12:00 +26°C° 0 mm 3 mps 571 mmHg 35%
13:00 +25°C° 0.3 mm 4 mps 570 mmHg 38%
14:00 +25°C° 0.3 mm 4 mps 569 mmHg 42%
15:00 +23°C° 0.3 mm 5 mps 569 mmHg 45%
16:00 +22°C° 0.6 mm 4 mps 569 mmHg 50%
17:00 +21°C° 0.6 mm 4 mps 568 mmHg 56%
18:00 +20°C° 0.6 mm 4 mps 568 mmHg 61%
19:00 +20°C° 0.4 mm 3 mps 568 mmHg 61%
20:00 +20°C° 0.4 mm 3 mps 568 mmHg 61%
21:00 +20°C° 0.4 mm 2 mps 568 mmHg 61%
22:00 +20°C° 0 mm 2 mps 568 mmHg 59%
23:00 +20°C° 0 mm 2 mps 568 mmHg 56%

Tomorrow, 17 July, Friday

Time Temperature Precipitation Wind Pressure Humidity
00:00 +20°C° 0 mm 2 mps 568 mmHg 54%
01:00 +20°C° 0 mm 2 mps 568 mmHg 56%
02:00 +19°C° 0 mm 2 mps 567 mmHg 58%
03:00 +19°C° 0 mm 2 mps 567 mmHg 59%
04:00 +20°C° 0 mm 1 mps 567 mmHg 60%
05:00 +19°C° 0 mm 1 mps 567 mmHg 60%
06:00 +19°C° 0 mm 1 mps 567 mmHg 61%
07:00 +19°C° 0 mm 2 mps 568 mmHg 54%
08:00 +20°C° 0 mm 2 mps 569 mmHg 47%
09:00 +21°C° 0 mm 3 mps 569 mmHg 40%
10:00 +22°C° 0 mm 3 mps 570 mmHg 39%
11:00 +23°C° 0 mm 4 mps 570 mmHg 38%
12:00 +25°C° 0 mm 4 mps 570 mmHg 37%
13:00 +25°C° 0 mm 5 mps 570 mmHg 37%
14:00 +25°C° 0 mm 5 mps 569 mmHg 36%
15:00 +26°C° 0 mm 6 mps 569 mmHg 36%
16:00 +23°C° 0 mm 6 mps 569 mmHg 40%
17:00 +22°C° 0 mm 5 mps 568 mmHg 44%
18:00 +21°C° 0 mm 4 mps 567 mmHg 48%
19:00 +20°C° 0 mm 4 mps 567 mmHg 53%
20:00 +19°C° 0 mm 3 mps 567 mmHg 58%
21:00 +18°C° 0 mm 3 mps 567 mmHg 63%
22:00 +18°C° 0 mm 2 mps 567 mmHg 61%
23:00 +18°C° 0 mm 2 mps 567 mmHg 59%

Day after tomorrow, 18 July, Saturday

Time Temperature Precipitation Wind Pressure Humidity
00:00 +18°C° 0 mm 2 mps 567 mmHg 58%
01:00 +19°C° 0 mm 1 mps 567 mmHg 55%
02:00 +19°C° 0 mm 1 mps 567 mmHg 52%
03:00 +19°C° 0 mm 1 mps 567 mmHg 50%
04:00 +19°C° 0 mm 1 mps 567 mmHg 48%
05:00 +19°C° 0 mm 1 mps 567 mmHg 46%
06:00 +19°C° 0 mm 1 mps 567 mmHg 45%
07:00 +19°C° 0 mm 2 mps 568 mmHg 40%
08:00 +21°C° 0 mm 2 mps 569 mmHg 35%
09:00 +24°C° 0 mm 3 mps 570 mmHg 30%
10:00 +25°C° 0 mm 3 mps 570 mmHg 29%
11:00 +25°C° 0 mm 3 mps 570 mmHg 27%
12:00 +26°C° 0 mm 4 mps 570 mmHg 26%
13:00 +26°C° 0 mm 4 mps 570 mmHg 28%
14:00 +26°C° 0 mm 4 mps 569 mmHg 31%
15:00 +25°C° 0 mm 4 mps 568 mmHg 33%
16:00 +24°C° 0 mm 3 mps 568 mmHg 36%
17:00 +22°C° 0 mm 3 mps 568 mmHg 38%
18:00 +23°C° 0 mm 2 mps 568 mmHg 41%
19:00 +21°C° 0 mm 2 mps 568 mmHg 42%
20:00 +22°C° 0 mm 1 mps 568 mmHg 43%
21:00 +22°C° 0 mm 1 mps 568 mmHg 44%
22:00 +22°C° 0 mm 1 mps 568 mmHg 41%
23:00 +22°C° 0 mm 1 mps 568 mmHg 39%

19 July, Sunday

Time Temperature Precipitation Wind Pressure Humidity
00:00 +21°C° 0 mm 2 mps 568 mmHg 37%
01:00 +21°C° 0 mm 2 mps 567 mmHg 36%
02:00 +22°C° 0 mm 1 mps 567 mmHg 36%
03:00 +21°C° 0 mm 1 mps 567 mmHg 36%
04:00 +21°C° 0 mm 1 mps 567 mmHg 36%
05:00 +21°C° 0 mm 1 mps 567 mmHg 36%
06:00 +21°C° 0 mm 1 mps 567 mmHg 37%
07:00 +21°C° 0 mm 2 mps 568 mmHg 37%
08:00 +22°C° 0 mm 4 mps 569 mmHg 36%
09:00 +22°C° 0 mm 5 mps 569 mmHg 36%
10:00 +23°C° 0 mm 4 mps 569 mmHg 33%
11:00 +25°C° 0 mm 3 mps 569 mmHg 30%
12:00 +25°C° 0 mm 2 mps 570 mmHg 28%
13:00 +25°C° 0 mm 3 mps 569 mmHg 29%
14:00 +24°C° 0 mm 3 mps 569 mmHg 30%
15:00 +24°C° 0 mm 3 mps 568 mmHg 31%
16:00 +22°C° 0 mm 4 mps 568 mmHg 37%
17:00 +21°C° 0 mm 4 mps 567 mmHg 44%
18:00 +20°C° 0 mm 4 mps 567 mmHg 50%
19:00 +19°C° 0 mm 4 mps 567 mmHg 57%
20:00 +19°C° 0 mm 3 mps 567 mmHg 63%
21:00 +18°C° 0 mm 2 mps 567 mmHg 69%
22:00 +18°C° 0 mm 3 mps 567 mmHg 65%
23:00 +18°C° 0 mm 3 mps 567 mmHg 62%

20 July, Monday

Time Temperature Precipitation Wind Pressure Humidity
00:00 +18°C° 0 mm 3 mps 567 mmHg 58%
01:00 +18°C° 0 mm 2 mps 566 mmHg 55%
02:00 +18°C° 0 mm 2 mps 566 mmHg 52%
03:00 +19°C° 0 mm 1 mps 566 mmHg 49%
04:00 +19°C° 0 mm 1 mps 566 mmHg 50%
05:00 +18°C° 0 mm 1 mps 566 mmHg 51%
06:00 +18°C° 0 mm 1 mps 566 mmHg 53%
07:00 +19°C° 0 mm 1 mps 567 mmHg 48%
08:00 +20°C° 0 mm 2 mps 567 mmHg 44%
09:00 +21°C° 0 mm 2 mps 568 mmHg 40%
10:00 +23°C° 0 mm 2 mps 568 mmHg 39%
11:00 +24°C° 0 mm 3 mps 569 mmHg 38%
12:00 +25°C° 0 mm 3 mps 569 mmHg 37%
13:00 +24°C° 0 mm 3 mps 568 mmHg 42%
14:00 +22°C° 0 mm 3 mps 567 mmHg 47%
15:00 +21°C° 0 mm 3 mps 567 mmHg 52%
16:00 +20°C° 0.3 mm 3 mps 566 mmHg 55%
17:00 +20°C° 0.3 mm 3 mps 566 mmHg 58%
18:00 +19°C° 0.3 mm 2 mps 566 mmHg 60%
19:00 +19°C° 0.1 mm 2 mps 566 mmHg 66%
20:00 +18°C° 0.1 mm 2 mps 566 mmHg 71%
21:00 +18°C° 0.1 mm 2 mps 566 mmHg 77%
22:00 +18°C° 0 mm 2 mps 566 mmHg 77%
23:00 +18°C° 0 mm 2 mps 566 mmHg 76%

21 July, Tuesday

Time Temperature Precipitation Wind Pressure Humidity
00:00 +18°C° 0 mm 2 mps 566 mmHg 76%
01:00 +18°C° 0.1 mm 2 mps 566 mmHg 75%
02:00 +18°C° 0.1 mm 2 mps 566 mmHg 75%
03:00 +19°C° 0.1 mm 1 mps 566 mmHg 74%
04:00 +17°C° 0 mm 2 mps 566 mmHg 76%
05:00 +17°C° 0 mm 2 mps 566 mmHg 78%
06:00 +16°C° 0 mm 2 mps 566 mmHg 80%
07:00 +18°C° 0 mm 2 mps 566 mmHg 73%
08:00 +19°C° 0 mm 2 mps 567 mmHg 66%
09:00 +20°C° 0 mm 2 mps 567 mmHg 59%
10:00 +21°C° 0.2 mm 3 mps 568 mmHg 55%
11:00 +22°C° 0.2 mm 3 mps 568 mmHg 51%
12:00 +23°C° 0.2 mm 4 mps 568 mmHg 47%
13:00 +23°C° 0.1 mm 4 mps 567 mmHg 48%
14:00 +22°C° 0.1 mm 5 mps 567 mmHg 50%
15:00 +22°C° 0.1 mm 5 mps 566 mmHg 51%
16:00 +21°C° 0.3 mm 5 mps 566 mmHg 56%
17:00 +20°C° 0.3 mm 5 mps 566 mmHg 60%
18:00 +20°C° 0.3 mm 4 mps 565 mmHg 65%
19:00 +19°C° 0.2 mm 4 mps 566 mmHg 68%
20:00 +19°C° 0.2 mm 3 mps 566 mmHg 71%
21:00 +18°C° 0.2 mm 3 mps 566 mmHg 74%
22:00 +18°C° 0 mm 2 mps 566 mmHg 74%
23:00 +18°C° 0 mm 2 mps 566 mmHg 74%
Show more